Regional Weather Roundup
Issued by NWS

Home | Current Version | Previous Version | Text Only | Print | Product List | Glossary On
Versions: 1 2 3 4 5 6 7 8 9 10 11 12 13 14 15 16 17 18 19 20 21 22 23 24 25 26 27 28 29 30 31 32 33 34 35 36 37 38 39 40 41 42 43 44 45 46 47 48 49 50
000
ASUS42 KTBW 301610
RWRFL
FLORIDA REGIONAL WEATHER ROUNDUP
NATIONAL WEATHER SERVICE TAMPA BAY RUSKIN FL
1200 PM EDT TUE SEP 30 2014

NOTE: "FAIR" INDICATES FEW OR NO CLOUDS BELOW 12,000 FEET WITH NO
SIGNIFICANT WEATHER AND/OR OBSTRUCTIONS TO VISIBILITY.


FLZ001>010-012>015-112-114-115-301700-
PANHANDLE FLORIDA

CITY           SKY/WX    TMP DP  RH WIND       PRES   REMARKS
PENSACOLA      CLOUDY    77  68  73 VRB6      29.92S
PENSACOLA NAS  CLOUDY    77  70  79 E9        29.92S
MILTON NAS     PTSUNNY   76  67  73 N5        29.93S
CRESTVIEW      CLOUDY    75  68  78 N6        29.94S
DUKE FIELD     CLOUDY    76  71  84 N7        29.93R
VALPARAISO     CLOUDY    76  68  75 NE8       29.92R
MARY ESTHER    CLOUDY    76  65  69 NE8       29.91S
TRI COUNTY     CLOUDY    74  67  78 NE8       29.93S
PANAMA CITY    CLOUDY    77  69  76 NE10      29.90S
TYNDALL AFB    CLOUDY    75  73  94 N6        29.90S
APALACHICOLA   CLOUDY    80  72  76 NE8       29.89R

STATION/POSITION SKY/WX   TEMP    WIND        PRES    WAVE   SWELL
                          AIR SEA DIR/SP/G            HT/PER HT/PER
                          (F)     (DEG/KT/KT) (MB)    (FT/S) (FT/S)
30.1N   87.6W              76 82   50/ 12/ 14 1013.1R   2/ 4
29.2N   88.2W              80 82   70/ 10/ 12 1012.8R   3/ 5   2/ 5
28.8N   86.0W              79 83   20/ 12/ 14 1011.5R   3/ 4
PANAMA CITY BEAC           75 80   30/  8/ 12 1012.5R
CAPE SAN BLAS    NOT AVBL
TOWER C                    76      40/ 16/ 18 1011.5R
28.5N   84.5W              80 83   CALM  /  4 1010.8S   2/ 4   2/ 4

$$
FLZ011-016>038-118-127-128-134-139-239-301700-
NORTH FLORIDA

CITY           SKY/WX    TMP DP  RH WIND       PRES   REMARKS
MARIANNA       PTSUNNY   76  71  85 NE8       29.92S
TALLAHASSEE    CLOUDY    76  69  79 NE5       29.90S
PERRY          CLOUDY    61  59  94 N5        29.90F
CROSS CITY       N/A     76  71  85 NE6       29.88S
LAKE CITY      CLOUDY    72  70  94 N7        29.90S
GAINESVILLE    CLOUDY    74  72  93 NE7       29.89R
MAYPORT NAS    CLOUDY    75  73  93 N10       29.87S
JACKSONVILLE   CLOUDY    75  71  87 N8        29.88S
JAX NAS        CLOUDY    74  70  87 NW10      29.89R
JAX CRAIG      CLOUDY    74  70  87 N9        29.88R
JAX CECIL      CLOUDY    72  72 100 N5        29.90R FOG
FERNANDINA BEA CLOUDY    79  73  83 N8        29.87R
ST AUGUSTINE   CLOUDY    75  73  93 NW7       29.88R FOG

STATION/POSITION SKY/WX   TEMP    WIND        PRES    WAVE   SWELL
                          AIR SEA DIR/SP/G            HT/PER HT/PER
                          (F)     (DEG/KT/KT) (MB)    (FT/S) (FT/S)
SHELL POINT                73      40/  5/ 11   N/A
KEATON BEACH               74      70/  6/  8 1012.4R
CEDAR KEY                  76     110/  4/  5 1012.0R
FERNANDINA                 73 78  360/  8/ 11 1011.3R
30.7N   81.3W                 79                N/A     5/ 6
MAYPORT                    74 79  360/ 10/ 15   N/A
31.4N   80.9W              73 79   20/ 16/ 19 1011.5S   4/ 6
ST AUGUSTINE               75     320/  8/  9 1012.0R

$$
FLZ040-043>046-052-053-057-058-063-144-301700-
INTERIOR CENTRAL FLORIDA

CITY           SKY/WX    TMP DP  RH WIND       PRES   REMARKS
OCALA          PTSUNNY   79  73  83 W5        29.88S
THE VILLAGES     N/A     82  75  78 CALM      29.77F
LEESBURG       MOSUNNY   82  73  74 W6        29.88S
SANFORD        CLOUDY    81  73  76 NW5       29.87S
ORLANDO EXEC   PTSUNNY   83  74  74 W7        29.87S
ORLANDO INTL   PTSUNNY   82  75  79 NW8       29.87S
KISSIMMEE      PTSUNNY   82  75  78 W8        29.87F
WINTER HAVEN   PTSUNNY   82  73  74 W7        29.87F
LAKELAND       PTSUNNY   79  79 100 N5        29.87F
BARTOW         PTSUNNY   82  73  74 W8        29.87F
OKEECHOBEE     MOSUNNY   86  73  66 MISG      29.88F

$$
FLZ041-047-054-059-064-141-147-301700-
EAST CENTRAL FLORIDA

CITY           SKY/WX    TMP DP  RH WIND       PRES   REMARKS
ORMOND BEACH   PTSUNNY   81  73  78 NW7       29.87R
DAYTONA BEACH  PTSUNNY   81  73  76 W8        29.87S
DELAND         CLOUDY    77  73  88 NW7       29.88
NEW SMYRNA BEA PTSUNNY   79  72  78 NW8       29.87S
JFK SPACE CTR  PTSUNNY   81  73  77 W10       29.86S
TITUSVILLE     PTSUNNY   81  75  83 NW7       29.86F
CAPE CANAVERAL MOSUNNY   82  74  77 NW6       29.85F
PATRICK AFB    SUNNY     81  76  84 W6        29.86S
MELBOURNE      PTSUNNY   86  74  67 W9        29.85F
VERO BEACH     MOSUNNY   85  72  65 W13       29.86F
FT PIERCE      PTSUNNY   86  73  65 W13       29.86F
STUART         PTSUNNY   84  75  74 W10       29.88S

STATION/POSITION SKY/WX   TEMP    WIND        PRES    WAVE   SWELL
                          AIR SEA DIR/SP/G            HT/PER HT/PER
                          (F)     (DEG/KT/KT) (MB)    (FT/S) (FT/S)
28.5N   80.2W              79 83  270/ 12/ 14 1011.2R
28.9N   78.5W              82 84  280/ 19/ 21 1009.9F   3/ 8   2/ 8
TRIDENT PIER               82 84  250/  8/ 10 1010.7F
28.4N   80.5W                 83                N/A     1/ 9
27.6N   80.2W                 83                N/A     2/10

$$
FLZ050-056-061-142-242-148-248-149-249-151-251-155-255-
160-260-301700-
WEST CENTRAL FLORIDA

CITY           SKY/WX    TMP DP  RH WIND       PRES   REMARKS
CRYSTAL RIVER  PTSUNNY   81  73  78 W5        29.86F
INVERNESS      PTSUNNY   82  39  21 W6        29.87F
BROOKSVILLE    PTSUNNY   83  74  74 W8        29.87F
ZEPHYRHILLS    CLOUDY    81  77  89 W6        29.87F
CLEARWATER     PTSUNNY   84  75  74 W14       29.86S
TAMPA INTL     RAIN      79  74  84 NW9G18    29.87S FOG
TAMPA EXEC     PTSUNNY   84  77  79 CALM      29.86F
PLANT CITY     MOSUNNY   82  79  89 W5        29.88F
MACDILL AFB    PTSUNNY   86  77  74 N8        29.87R HX  97
ST PETERSBURG  PTSUNNY   78  73  84 SW12      29.85S
SARASOTA       PTSUNNY   84  76  76 W3        29.86S
VENICE           N/A     86  77  74 MISG      29.88S HX  97

STATION/POSITION SKY/WX   TEMP    WIND        PRES    WAVE   SWELL
                          AIR SEA DIR/SP/G            HT/PER HT/PER
                          (F)     (DEG/KT/KT) (MB)    (FT/S) (FT/S)
CEDAR KEY                  76     110/  4/  5 1012.0R
28.5N   84.5W              80 83   CALM  /  4 1010.8S   2/ 4   2/ 4
27.3N   84.3W                 84                N/A     2/ 4
CLEARWATER BEACH           81 82  280/  7/  8 1010.9S
MIDDLE TAMPA BAY           77     270/  9/ 15 1012.3R
VENICE                     84 84  240/ 13/ 14 1011.2F

$$
FLZ066-069-070-075>078-162-262-165-265-301700-
SOUTHWEST FLORIDA AND KEYS

CITY           SKY/WX    TMP DP  RH WIND       PRES   REMARKS
PUNTA GORDA    MOSUNNY   88  75  65 W14G20    29.89F HX  97
FT MYERS       SUNNY     88  74  63 W10       29.88R HX  96
SOUTHWEST INTL MOSUNNY   86  73  65 W9        29.88S
NAPLES         MOSUNNY   88  76  67 W9        29.89R HX  99
MARCO ISLAND   PTSUNNY   88  75  66 W12       29.89S HX  97
MARATHON       PTSUNNY   90  78  68 SW10      29.91S HX 104
KEY WEST NAS   MOSUNNY   87  75  67 SW10      29.92R HX  96
KEY WEST INTL  SUNNY     86  75  69 SW9       29.92S HX  95

STATION/POSITION SKY/WX   TEMP    WIND        PRES    WAVE   SWELL
                          AIR SEA DIR/SP/G            HT/PER HT/PER
                          (F)     (DEG/KT/KT) (MB)    (FT/S) (FT/S)
VENICE                     84 84  240/ 13/ 14 1011.2F
NAPLES                     85 87  270/  9/ 11 1012.7F
DRY TORTUGAS               84     210/  7/  8 1013.0R
NW FL BAY                  84     230/ 10/ 12 1012.8R
SAND KEY                   83     230/  8/ 10 1013.2R
SOMBRERO KEY               83     240/ 10/ 11 1013.5F
LONG KEY                   84 86  230/ 10/ 12 1013.5R
MOLASSES REEF              83 86  230/ 13/ 14 1012.5S

$$
FLZ067-068-071>074-168-172>174-301700-
SOUTHEAST FLORIDA

CITY           SKY/WX    TMP DP  RH WIND       PRES   REMARKS
W PALM BEACH   PTSUNNY   88  76  67 SW14      29.86F HX  99
FT LAUDER-EXEC MOSUNNY   86  74  67 SW9       29.87S
FT LAUDERDALE  MOSUNNY   89  73  59 W15       29.87S HX  97
POMPANO BEACH  MOSUNNY   89  74  60 SW12      29.87F HX  98
PEMBROKE PINES PTSUNNY   88  74  63 W12       29.89S HX  96
OPA LOCKA      MOSUNNY   89  73  59 W10G18    29.88F HX  97
MIAMI          PTSUNNY   89  75  63 S8        29.88F HX  99
WEST KENDALL   MOSUNNY   90  74  59 W9        29.88F HX  99
HOMESTEAD      SUNNY     89  74  62 SW12      29.89S HX  98

STATION/POSITION SKY/WX   TEMP    WIND        PRES    WAVE   SWELL
                          AIR SEA DIR/SP/G            HT/PER HT/PER
                          (F)     (DEG/KT/KT) (MB)    (FT/S) (FT/S)
PORT EVERGLADES            87     250/  6/ 10 1011.6
VIRGINIA KEY               84 85  220/  9/ 11 1012.3S
LAKE WORTH                 85 85  250/  9/ 12 1011.3S
FOWEY ROCKS                85 85  240/  9/ 10 1012.3F
SETTLEMENT POINT           83     250/ 14/ 15 1012.2S

$$




USA.gov is the U.S. government's official web portal to all federal, state and local government web resources and services.